Year,Month,Day,Hour,Minute,Value (Times are PST for temperature in C)
2017,09,03,00,00,17.50
2017,09,03,00,01,17.50
2017,09,03,00,02,17.50
2017,09,03,00,03,17.40
2017,09,03,00,04,17.40
2017,09,03,00,05,17.40
2017,09,03,00,06,17.40
2017,09,03,00,07,17.40
2017,09,03,00,08,17.30
2017,09,03,00,09,17.30
2017,09,03,00,10,17.30
2017,09,03,00,11,17.30
2017,09,03,00,12,17.30
2017,09,03,00,13,17.30
2017,09,03,00,14,17.30
2017,09,03,00,15,17.20
2017,09,03,00,16,17.20
2017,09,03,00,17,17.20
2017,09,03,00,18,17.20
2017,09,03,00,19,17.20
2017,09,03,00,20,17.20
2017,09,03,00,21,17.20
2017,09,03,00,22,17.10
2017,09,03,00,23,17.10
2017,09,03,00,24,17.10
2017,09,03,00,25,17.10
2017,09,03,00,26,17.10
2017,09,03,00,27,17.10
2017,09,03,00,28,17.10
2017,09,03,00,29,17.10
2017,09,03,00,30,17.10
2017,09,03,00,31,17.10
2017,09,03,00,32,17.10
2017,09,03,00,33,17.10
2017,09,03,00,34,17.10
2017,09,03,00,35,17.10
2017,09,03,00,36,17.10
2017,09,03,00,37,17.10
2017,09,03,00,38,17.00
2017,09,03,00,39,17.00
2017,09,03,00,40,17.00
2017,09,03,00,41,17.00
2017,09,03,00,42,17.00
2017,09,03,00,43,17.00
2017,09,03,00,44,17.00
2017,09,03,00,45,16.90
2017,09,03,00,46,16.90
2017,09,03,00,47,16.90
2017,09,03,00,48,16.90
2017,09,03,00,49,16.90
2017,09,03,00,50,16.90
2017,09,03,00,51,16.90
2017,09,03,00,52,16.90
2017,09,03,00,53,16.90
2017,09,03,00,54,16.90
2017,09,03,00,55,16.90
2017,09,03,00,56,16.90
2017,09,03,00,57,16.80
2017,09,03,00,58,16.90
2017,09,03,00,59,16.80
2017,09,03,01,00,16.80
2017,09,03,01,01,16.80
2017,09,03,01,02,16.80
2017,09,03,01,03,16.80
2017,09,03,01,04,16.80
2017,09,03,01,05,16.80
2017,09,03,01,06,16.80
2017,09,03,01,07,16.80
2017,09,03,01,08,16.70
2017,09,03,01,09,16.70
2017,09,03,01,10,16.70
2017,09,03,01,11,16.70
2017,09,03,01,12,16.70
2017,09,03,01,13,16.70
2017,09,03,01,14,16.70
2017,09,03,01,15,16.70
2017,09,03,01,16,16.60
2017,09,03,01,17,16.60
2017,09,03,01,18,16.60
2017,09,03,01,19,16.60
2017,09,03,01,20,16.60
2017,09,03,01,21,16.60
2017,09,03,01,22,16.60
2017,09,03,01,23,16.60
2017,09,03,01,24,16.60
2017,09,03,01,25,16.60
2017,09,03,01,26,16.60
2017,09,03,01,27,16.60
2017,09,03,01,28,16.60
2017,09,03,01,29,16.60
2017,09,03,01,30,16.60
2017,09,03,01,31,16.50
2017,09,03,01,32,16.50
2017,09,03,01,33,16.50
2017,09,03,01,34,16.50
2017,09,03,01,35,16.50
2017,09,03,01,36,16.50
2017,09,03,01,37,16.50
2017,09,03,01,38,16.50
2017,09,03,01,39,16.50
2017,09,03,01,40,16.40
2017,09,03,01,41,16.40
2017,09,03,01,42,16.40
2017,09,03,01,43,16.40
2017,09,03,01,44,16.40
2017,09,03,01,45,16.40
2017,09,03,01,46,16.40
2017,09,03,01,47,16.40
2017,09,03,01,48,16.40
2017,09,03,01,49,16.40
2017,09,03,01,50,16.40
2017,09,03,01,51,16.30
2017,09,03,01,52,16.30
2017,09,03,01,53,16.30
2017,09,03,01,54,16.30
2017,09,03,01,55,16.30
2017,09,03,01,56,16.30
2017,09,03,01,57,16.30
2017,09,03,01,58,16.20
2017,09,03,01,59,16.20
2017,09,03,02,00,16.20
2017,09,03,02,01,16.20
2017,09,03,02,02,16.20
2017,09,03,02,03,16.20
2017,09,03,02,04,16.20
2017,09,03,02,05,16.20
2017,09,03,02,06,16.10
2017,09,03,02,07,16.10
2017,09,03,02,08,16.10
2017,09,03,02,09,16.10
2017,09,03,02,10,16.10
2017,09,03,02,11,16.10
2017,09,03,02,12,16.10
2017,09,03,02,13,16.00
2017,09,03,02,14,16.10
2017,09,03,02,15,16.10
2017,09,03,02,16,16.10
2017,09,03,02,17,16.00
2017,09,03,02,18,16.00
2017,09,03,02,19,16.00
2017,09,03,02,20,16.00
2017,09,03,02,21,16.00
2017,09,03,02,22,15.90
2017,09,03,02,23,15.90
2017,09,03,02,24,15.90
2017,09,03,02,25,15.90
2017,09,03,02,26,15.90
2017,09,03,02,27,15.90
2017,09,03,02,28,15.90
2017,09,03,02,29,15.90
2017,09,03,02,30,15.90
2017,09,03,02,31,15.90
2017,09,03,02,32,15.90
2017,09,03,02,33,15.90
2017,09,03,02,34,15.90
2017,09,03,02,35,15.90
2017,09,03,02,36,15.90
2017,09,03,02,37,15.90
2017,09,03,02,38,15.80
2017,09,03,02,39,15.80
2017,09,03,02,40,15.80
2017,09,03,02,41,15.80
2017,09,03,02,42,15.80
2017,09,03,02,43,15.80
2017,09,03,02,44,15.80
2017,09,03,02,45,15.70
2017,09,03,02,46,15.70
2017,09,03,02,47,15.70
2017,09,03,02,48,15.70
2017,09,03,02,49,15.70
2017,09,03,02,50,15.70
2017,09,03,02,51,15.70
2017,09,03,02,52,15.70
2017,09,03,02,53,15.70
2017,09,03,02,54,15.70
2017,09,03,02,55,15.70
2017,09,03,02,56,15.70
2017,09,03,02,57,15.60
2017,09,03,02,58,15.60
2017,09,03,02,59,15.60
2017,09,03,03,00,15.60
2017,09,03,03,01,15.60
2017,09,03,03,02,15.60
2017,09,03,03,03,15.70
2017,09,03,03,04,15.70
2017,09,03,03,05,15.70
2017,09,03,03,06,15.70
2017,09,03,03,07,15.70
2017,09,03,03,08,15.60
2017,09,03,03,09,15.60
2017,09,03,03,10,15.60
2017,09,03,03,11,15.60
2017,09,03,03,12,15.60
2017,09,03,03,13,15.60
2017,09,03,03,14,15.60
2017,09,03,03,15,15.60
2017,09,03,03,16,15.60
2017,09,03,03,17,15.60
2017,09,03,03,18,15.50
2017,09,03,03,19,15.50
2017,09,03,03,20,15.50
2017,09,03,03,21,15.50
2017,09,03,03,22,15.50
2017,09,03,03,23,15.50
2017,09,03,03,24,15.50
2017,09,03,03,25,15.40
2017,09,03,03,26,15.40
2017,09,03,03,27,15.40
2017,09,03,03,28,15.40
2017,09,03,03,29,15.40
2017,09,03,03,30,15.40
2017,09,03,03,31,15.40
2017,09,03,03,32,15.40
2017,09,03,03,33,15.40
2017,09,03,03,34,15.40
2017,09,03,03,35,15.40
2017,09,03,03,36,15.40
2017,09,03,03,37,15.40
2017,09,03,03,38,15.30
2017,09,03,03,39,15.30
2017,09,03,03,40,15.30
2017,09,03,03,41,15.30
2017,09,03,03,42,15.30
2017,09,03,03,43,15.30
2017,09,03,03,44,15.30
2017,09,03,03,45,15.30
2017,09,03,03,46,15.30
2017,09,03,03,47,15.30
2017,09,03,03,48,15.30
2017,09,03,03,49,15.30
2017,09,03,03,50,15.30
2017,09,03,03,51,15.30
2017,09,03,03,52,15.30
2017,09,03,03,53,15.30
2017,09,03,03,54,15.30
2017,09,03,03,55,15.30
2017,09,03,03,56,15.20
2017,09,03,03,57,15.20
2017,09,03,03,58,15.20
2017,09,03,03,59,15.20
2017,09,03,04,00,15.20
2017,09,03,04,01,15.20
2017,09,03,04,02,15.20
2017,09,03,04,03,15.20
2017,09,03,04,04,15.10
2017,09,03,04,05,15.10
2017,09,03,04,06,15.10
2017,09,03,04,07,15.10
2017,09,03,04,08,15.10
2017,09,03,04,09,15.10
2017,09,03,04,10,15.10
2017,09,03,04,11,15.10
2017,09,03,04,12,15.00
2017,09,03,04,13,15.00
2017,09,03,04,14,15.00
2017,09,03,04,15,15.00
2017,09,03,04,16,15.00
2017,09,03,04,17,14.90
2017,09,03,04,18,14.90
2017,09,03,04,19,14.90
2017,09,03,04,20,14.90
2017,09,03,04,21,14.90
2017,09,03,04,22,14.80
2017,09,03,04,23,14.80
2017,09,03,04,24,14.80
2017,09,03,04,25,14.80
2017,09,03,04,26,14.80
2017,09,03,04,27,14.80
2017,09,03,04,28,14.70
2017,09,03,04,29,14.70
2017,09,03,04,30,14.70
2017,09,03,04,31,14.70
2017,09,03,04,32,14.70
2017,09,03,04,33,14.70
2017,09,03,04,34,14.70
2017,09,03,04,35,14.70
2017,09,03,04,36,14.70
2017,09,03,04,37,14.60
2017,09,03,04,38,14.60
2017,09,03,04,39,14.60
2017,09,03,04,40,14.60
2017,09,03,04,41,14.60
2017,09,03,04,42,14.60
2017,09,03,04,43,14.60
2017,09,03,04,44,14.60
2017,09,03,04,45,14.50
2017,09,03,04,46,14.50
2017,09,03,04,47,14.50
2017,09,03,04,48,14.50
2017,09,03,04,49,14.50
2017,09,03,04,50,14.50
2017,09,03,04,51,14.50
2017,09,03,04,52,14.50
2017,09,03,04,53,14.50
2017,09,03,04,54,14.40
2017,09,03,04,55,14.40
2017,09,03,04,56,14.40
2017,09,03,04,57,14.40
2017,09,03,04,58,14.40
2017,09,03,04,59,14.40
2017,09,03,05,00,14.40
2017,09,03,05,01,14.40
2017,09,03,05,02,14.30
2017,09,03,05,03,14.30
2017,09,03,05,04,14.30
2017,09,03,05,05,14.30
2017,09,03,05,06,14.30
2017,09,03,05,07,14.30
2017,09,03,05,08,14.30
2017,09,03,05,09,14.30
2017,09,03,05,10,14.30
2017,09,03,05,11,14.20
2017,09,03,05,12,14.20
2017,09,03,05,13,14.20
2017,09,03,05,14,14.20
2017,09,03,05,15,14.20
2017,09,03,05,16,14.20
2017,09,03,05,17,14.10
2017,09,03,05,18,14.10
2017,09,03,05,19,14.10
2017,09,03,05,20,14.10
2017,09,03,05,21,14.10
2017,09,03,05,22,14.10
2017,09,03,05,23,14.00
2017,09,03,05,24,14.00
2017,09,03,05,25,14.00
2017,09,03,05,26,14.00
2017,09,03,05,27,14.00
2017,09,03,05,28,14.00
2017,09,03,05,29,14.00
2017,09,03,05,30,13.90
2017,09,03,05,31,13.90
2017,09,03,05,32,13.90
2017,09,03,05,33,13.90
2017,09,03,05,34,13.90
2017,09,03,05,35,13.90
2017,09,03,05,36,13.90
2017,09,03,05,37,13.90
2017,09,03,05,38,13.90
2017,09,03,05,39,13.90
2017,09,03,05,40,13.90
2017,09,03,05,41,13.90
2017,09,03,05,42,13.80
2017,09,03,05,43,13.80
2017,09,03,05,44,13.80
2017,09,03,05,45,13.80
2017,09,03,05,46,13.80
2017,09,03,05,47,13.80
2017,09,03,05,48,13.80
2017,09,03,05,49,13.80
2017,09,03,05,50,13.80
2017,09,03,05,51,13.80
2017,09,03,05,52,13.70
2017,09,03,05,53,13.70
2017,09,03,05,54,13.70
2017,09,03,05,55,13.70
2017,09,03,05,56,13.70
2017,09,03,05,57,13.70
2017,09,03,05,58,13.70
2017,09,03,05,59,13.70
2017,09,03,06,00,13.70
2017,09,03,06,01,13.70
2017,09,03,06,02,13.70
2017,09,03,06,03,13.70
2017,09,03,06,04,13.70
2017,09,03,06,05,13.60
2017,09,03,06,06,13.60
2017,09,03,06,07,13.60
2017,09,03,06,08,13.60
2017,09,03,06,09,13.60
2017,09,03,06,10,13.60
2017,09,03,06,11,13.60
2017,09,03,06,12,13.60
2017,09,03,06,13,13.60
2017,09,03,06,14,13.60
2017,09,03,06,15,13.60
2017,09,03,06,16,13.60
2017,09,03,06,17,13.60
2017,09,03,06,18,13.60
2017,09,03,06,19,13.50
2017,09,03,06,20,13.50
2017,09,03,06,21,13.50
2017,09,03,06,22,13.50
2017,09,03,06,23,13.50
2017,09,03,06,24,13.50
2017,09,03,06,25,13.50
2017,09,03,06,26,13.50
2017,09,03,06,27,13.50
2017,09,03,06,28,13.40
2017,09,03,06,29,13.40
2017,09,03,06,30,13.40
2017,09,03,06,31,13.40
2017,09,03,06,32,13.40
2017,09,03,06,33,13.40
2017,09,03,06,34,13.40
2017,09,03,06,35,13.30
2017,09,03,06,36,13.40
2017,09,03,06,37,13.30
2017,09,03,06,38,13.30
2017,09,03,06,39,13.30
2017,09,03,06,40,13.30
2017,09,03,06,41,13.30
2017,09,03,06,42,13.30
2017,09,03,06,43,13.30
2017,09,03,06,44,13.30
2017,09,03,06,45,13.30
2017,09,03,06,46,13.30
2017,09,03,06,47,13.30
2017,09,03,06,48,13.30
2017,09,03,06,49,13.30
2017,09,03,06,50,13.30
2017,09,03,06,51,13.30
2017,09,03,06,52,13.30
2017,09,03,06,53,13.20
2017,09,03,06,54,13.20
2017,09,03,06,55,13.20
2017,09,03,06,56,13.20
2017,09,03,06,57,13.20
2017,09,03,06,58,13.20
2017,09,03,06,59,13.20
2017,09,03,07,00,13.20
2017,09,03,07,01,13.20
2017,09,03,07,02,13.20
2017,09,03,07,03,13.20
2017,09,03,07,04,13.20
2017,09,03,07,05,13.20
2017,09,03,07,06,13.20
2017,09,03,07,07,13.20
2017,09,03,07,08,13.20
2017,09,03,07,09,13.20
2017,09,03,07,10,13.20
2017,09,03,07,11,13.20
2017,09,03,07,12,13.30
2017,09,03,07,13,13.30
2017,09,03,07,14,13.30
2017,09,03,07,15,13.30
2017,09,03,07,16,13.30
2017,09,03,07,17,13.30
2017,09,03,07,18,13.30
2017,09,03,07,19,13.30
2017,09,03,07,20,13.30
2017,09,03,07,21,13.30
2017,09,03,07,22,13.30
2017,09,03,07,23,13.30
2017,09,03,07,24,13.30
2017,09,03,07,25,13.30
2017,09,03,07,26,13.30
2017,09,03,07,27,13.40
2017,09,03,07,28,13.40
2017,09,03,07,29,13.40
2017,09,03,07,30,13.40
2017,09,03,07,31,13.40
2017,09,03,07,32,13.40
2017,09,03,07,33,13.50
2017,09,03,07,34,13.50
2017,09,03,07,35,13.60
2017,09,03,07,36,13.60
2017,09,03,07,37,13.60
2017,09,03,07,38,13.70
2017,09,03,07,39,13.70
2017,09,03,07,40,13.80
2017,09,03,07,41,13.80
2017,09,03,07,42,13.80
2017,09,03,07,43,13.90
2017,09,03,07,44,13.90
2017,09,03,07,45,13.90
2017,09,03,07,46,14.00
2017,09,03,07,47,14.00
2017,09,03,07,48,14.10
2017,09,03,07,49,14.10
2017,09,03,07,50,14.20
2017,09,03,07,51,14.20
2017,09,03,07,52,14.30
2017,09,03,07,53,14.30
2017,09,03,07,54,14.30
2017,09,03,07,55,14.40
2017,09,03,07,56,14.40
2017,09,03,07,57,14.50
2017,09,03,07,58,14.60
2017,09,03,07,59,14.60
2017,09,03,08,00,14.70
2017,09,03,08,01,14.80
2017,09,03,08,02,14.80
2017,09,03,08,03,14.90
2017,09,03,08,04,15.00
2017,09,03,08,05,15.10
2017,09,03,08,06,15.10
2017,09,03,08,07,15.20
2017,09,03,08,08,15.30
2017,09,03,08,09,15.40
2017,09,03,08,10,15.50
2017,09,03,08,11,15.60
2017,09,03,08,12,15.70
2017,09,03,08,13,15.80
2017,09,03,08,14,15.80
2017,09,03,08,15,15.90
2017,09,03,08,16,16.00
2017,09,03,08,17,16.10
2017,09,03,08,18,16.20
2017,09,03,08,19,16.30
2017,09,03,08,20,16.40
2017,09,03,08,21,16.50
2017,09,03,08,22,16.60
2017,09,03,08,23,16.80
2017,09,03,08,24,16.90
2017,09,03,08,25,17.00
2017,09,03,08,26,17.10
2017,09,03,08,27,17.20
2017,09,03,08,28,17.30
2017,09,03,08,29,17.40
2017,09,03,08,30,17.50
2017,09,03,08,31,17.60
2017,09,03,08,32,17.60
2017,09,03,08,33,17.70
2017,09,03,08,34,17.80
2017,09,03,08,35,17.80
2017,09,03,08,36,17.90
2017,09,03,08,37,18.00
2017,09,03,08,38,18.10
2017,09,03,08,39,18.20
2017,09,03,08,40,18.20
2017,09,03,08,41,18.30
2017,09,03,08,42,18.30
2017,09,03,08,43,18.30
2017,09,03,08,44,18.40
2017,09,03,08,45,18.40
2017,09,03,08,46,18.40
2017,09,03,08,47,18.50
2017,09,03,08,48,18.50
2017,09,03,08,49,18.50
2017,09,03,08,50,18.60
2017,09,03,08,51,18.70
2017,09,03,08,52,18.80
2017,09,03,08,53,18.90
2017,09,03,08,54,18.90
2017,09,03,08,55,19.00
2017,09,03,08,56,19.00
2017,09,03,08,57,19.10
2017,09,03,08,58,19.10
2017,09,03,08,59,19.10
2017,09,03,09,00,19.20
2017,09,03,09,01,19.20
2017,09,03,09,02,19.20
2017,09,03,09,03,19.30
2017,09,03,09,04,19.30
2017,09,03,09,05,19.30
2017,09,03,09,06,19.30
2017,09,03,09,07,19.40
2017,09,03,09,08,19.50
2017,09,03,09,09,19.50
2017,09,03,09,10,19.60
2017,09,03,09,11,19.70
2017,09,03,09,12,19.70
2017,09,03,09,13,19.80
2017,09,03,09,14,19.80
2017,09,03,09,15,19.80
2017,09,03,09,16,19.80
2017,09,03,09,17,19.80
2017,09,03,09,18,19.80
2017,09,03,09,19,19.80
2017,09,03,09,20,19.90
2017,09,03,09,21,19.90
2017,09,03,09,22,19.90
2017,09,03,09,23,19.90
2017,09,03,09,24,19.90
2017,09,03,09,25,19.90
2017,09,03,09,26,20.00
2017,09,03,09,27,20.00
2017,09,03,09,28,20.00
2017,09,03,09,29,20.10
2017,09,03,09,30,20.10
2017,09,03,09,31,20.20
2017,09,03,09,32,20.20
2017,09,03,09,33,20.20
2017,09,03,09,34,20.20
2017,09,03,09,35,20.20
2017,09,03,09,36,20.20
2017,09,03,09,37,20.20
2017,09,03,09,38,20.20
2017,09,03,09,39,20.20
2017,09,03,09,40,20.20
2017,09,03,09,41,20.30
2017,09,03,09,42,20.30
2017,09,03,09,43,20.30
2017,09,03,09,44,20.40
2017,09,03,09,45,20.40
2017,09,03,09,46,20.50
2017,09,03,09,47,20.50
2017,09,03,09,48,20.60
2017,09,03,09,49,20.70
2017,09,03,09,50,20.80
2017,09,03,09,51,20.90
2017,09,03,09,52,21.00
2017,09,03,09,53,21.10
2017,09,03,09,54,21.30
2017,09,03,09,55,21.30
2017,09,03,09,56,21.40
2017,09,03,09,57,21.40
2017,09,03,09,58,21.50
2017,09,03,09,59,21.50
2017,09,03,10,00,21.50
2017,09,03,10,01,21.50
2017,09,03,10,02,21.50
2017,09,03,10,03,21.50
2017,09,03,10,04,21.50
2017,09,03,10,05,21.40
2017,09,03,10,06,21.40
2017,09,03,10,07,21.40
2017,09,03,10,08,21.40
2017,09,03,10,09,21.50
2017,09,03,10,10,21.50
2017,09,03,10,11,21.60
2017,09,03,10,12,21.60
2017,09,03,10,13,21.70
2017,09,03,10,14,21.80
2017,09,03,10,15,21.80
2017,09,03,10,16,21.90
2017,09,03,10,17,22.00
2017,09,03,10,18,22.00
2017,09,03,10,19,22.10
2017,09,03,10,20,22.10
2017,09,03,10,21,22.10
2017,09,03,10,22,22.10
2017,09,03,10,23,22.10
2017,09,03,10,24,22.10
2017,09,03,10,25,22.10
2017,09,03,10,26,22.20
2017,09,03,10,27,22.20
2017,09,03,10,28,22.20
2017,09,03,10,29,22.20
2017,09,03,10,30,22.20
2017,09,03,10,31,22.20
2017,09,03,10,32,22.20
2017,09,03,10,33,22.30
2017,09,03,10,34,22.30
2017,09,03,10,35,22.40
2017,09,03,10,36,22.40
2017,09,03,10,37,22.50
2017,09,03,10,38,22.50
2017,09,03,10,39,22.60
2017,09,03,10,40,22.60
2017,09,03,10,41,22.70
2017,09,03,10,42,22.70
2017,09,03,10,43,22.80
2017,09,03,10,44,22.80
2017,09,03,10,45,22.80
2017,09,03,10,46,22.80
2017,09,03,10,47,22.90
2017,09,03,10,48,22.90
2017,09,03,10,49,22.90
2017,09,03,10,50,23.00
2017,09,03,10,51,23.00
2017,09,03,10,52,23.10
2017,09,03,10,53,23.20
2017,09,03,10,54,23.30
2017,09,03,10,55,23.30
2017,09,03,10,56,23.30
2017,09,03,10,57,23.30
2017,09,03,10,58,23.30
2017,09,03,10,59,23.30
2017,09,03,11,00,23.30
2017,09,03,11,01,23.40
2017,09,03,11,02,23.50
2017,09,03,11,03,23.50
2017,09,03,11,04,23.60
2017,09,03,11,05,23.60
2017,09,03,11,06,23.70
2017,09,03,11,07,23.70
2017,09,03,11,08,23.70
2017,09,03,11,09,23.70
2017,09,03,11,10,23.70
2017,09,03,11,11,23.80
2017,09,03,11,12,23.80
2017,09,03,11,13,23.90
2017,09,03,11,14,23.90
2017,09,03,11,15,24.00
2017,09,03,11,16,24.00
2017,09,03,11,17,24.10
2017,09,03,11,18,24.10
2017,09,03,11,19,24.10
2017,09,03,11,20,24.10
2017,09,03,11,21,24.00
2017,09,03,11,22,23.90
2017,09,03,11,23,23.80
2017,09,03,11,24,23.70
2017,09,03,11,25,23.60
2017,09,03,11,26,23.50
2017,09,03,11,27,23.50
2017,09,03,11,28,23.40
2017,09,03,11,29,23.40
2017,09,03,11,30,23.30
2017,09,03,11,31,23.20
2017,09,03,11,32,23.10
2017,09,03,11,33,23.00
2017,09,03,11,34,23.00
2017,09,03,11,35,22.90
2017,09,03,11,36,22.90
2017,09,03,11,37,22.90
2017,09,03,11,38,22.90
2017,09,03,11,39,22.90
2017,09,03,11,40,22.90
2017,09,03,11,41,22.90
2017,09,03,11,42,22.90
2017,09,03,11,43,22.90
2017,09,03,11,44,23.00
2017,09,03,11,45,23.00
2017,09,03,11,46,23.00
2017,09,03,11,47,23.00
2017,09,03,11,48,23.10
2017,09,03,11,49,23.10
2017,09,03,11,50,23.10
2017,09,03,11,51,23.20
2017,09,03,11,52,23.20
2017,09,03,11,53,23.30
2017,09,03,11,54,23.40
2017,09,03,11,55,23.40
2017,09,03,11,56,23.50
2017,09,03,11,57,23.60
2017,09,03,11,58,23.70
2017,09,03,11,59,23.70
2017,09,03,12,00,23.80
2017,09,03,12,01,23.80
2017,09,03,12,02,23.80
2017,09,03,12,03,23.80
2017,09,03,12,04,23.80
2017,09,03,12,05,23.70
2017,09,03,12,06,23.70
2017,09,03,12,07,23.70
2017,09,03,12,08,23.60
2017,09,03,12,09,23.60
2017,09,03,12,10,23.60
2017,09,03,12,11,23.50
2017,09,03,12,12,23.50
2017,09,03,12,13,23.40
2017,09,03,12,14,23.40
2017,09,03,12,15,23.50
2017,09,03,12,16,23.50
2017,09,03,12,17,23.50
2017,09,03,12,18,23.60
2017,09,03,12,19,23.60
2017,09,03,12,20,23.70
2017,09,03,12,21,23.80
2017,09,03,12,22,23.80
2017,09,03,12,23,23.80
2017,09,03,12,24,23.90
2017,09,03,12,25,24.00
2017,09,03,12,26,24.00
2017,09,03,12,27,24.00
2017,09,03,12,28,24.10
2017,09,03,12,29,24.10
2017,09,03,12,30,24.10
2017,09,03,12,31,24.10
2017,09,03,12,32,24.00
2017,09,03,12,33,24.00
2017,09,03,12,34,23.90
2017,09,03,12,35,23.90
2017,09,03,12,36,23.90
2017,09,03,12,37,24.00
2017,09,03,12,38,24.00
2017,09,03,12,39,24.00
2017,09,03,12,40,24.00
2017,09,03,12,41,24.00
2017,09,03,12,42,24.00
2017,09,03,12,43,24.10
2017,09,03,12,44,24.10
2017,09,03,12,45,24.10
2017,09,03,12,46,24.10
2017,09,03,12,47,24.10
2017,09,03,12,48,24.10
2017,09,03,12,49,24.10
2017,09,03,12,50,24.10
2017,09,03,12,51,24.20
2017,09,03,12,52,24.20
2017,09,03,12,53,24.30
2017,09,03,12,54,24.40
2017,09,03,12,55,24.60
2017,09,03,12,56,24.70
2017,09,03,12,57,24.70
2017,09,03,12,58,24.80
2017,09,03,12,59,24.90
2017,09,03,13,00,24.90
2017,09,03,13,01,25.00
2017,09,03,13,02,25.10
2017,09,03,13,03,25.20
2017,09,03,13,04,25.30
2017,09,03,13,05,25.40
2017,09,03,13,06,25.40
2017,09,03,13,07,25.50
2017,09,03,13,08,25.50
2017,09,03,13,09,25.60
2017,09,03,13,10,25.60
2017,09,03,13,11,25.60
2017,09,03,13,12,25.50
2017,09,03,13,13,25.50
2017,09,03,13,14,25.40
2017,09,03,13,15,25.40
2017,09,03,13,16,25.40
2017,09,03,13,17,25.40
2017,09,03,13,18,25.40
2017,09,03,13,19,25.50
2017,09,03,13,20,25.50
2017,09,03,13,21,25.60
2017,09,03,13,22,25.70
2017,09,03,13,23,25.70
2017,09,03,13,24,25.70
2017,09,03,13,25,25.80
2017,09,03,13,26,25.80
2017,09,03,13,27,25.80
2017,09,03,13,28,25.80
2017,09,03,13,29,25.90
2017,09,03,13,30,25.90
2017,09,03,13,31,25.90
2017,09,03,13,32,25.90
2017,09,03,13,33,25.90
2017,09,03,13,34,25.90
2017,09,03,13,35,25.90
2017,09,03,13,36,25.90
2017,09,03,13,37,25.90
2017,09,03,13,38,25.90
2017,09,03,13,39,25.90
2017,09,03,13,40,25.80
2017,09,03,13,41,25.80
2017,09,03,13,42,25.80
2017,09,03,13,43,25.70
2017,09,03,13,44,25.70
2017,09,03,13,45,25.80
2017,09,03,13,46,25.80
2017,09,03,13,47,25.80
2017,09,03,13,48,25.80
2017,09,03,13,49,25.90
2017,09,03,13,50,26.00
2017,09,03,13,51,26.10
2017,09,03,13,52,26.20
2017,09,03,13,53,26.30
2017,09,03,13,54,26.30
2017,09,03,13,55,26.40
2017,09,03,13,56,26.50
2017,09,03,13,57,26.60
2017,09,03,13,58,26.60
2017,09,03,13,59,26.80
2017,09,03,14,00,26.90
2017,09,03,14,01,27.00
2017,09,03,14,02,27.00
2017,09,03,14,03,27.00
2017,09,03,14,04,27.00
2017,09,03,14,05,26.90
2017,09,03,14,06,26.90
2017,09,03,14,07,26.90
2017,09,03,14,08,26.90
2017,09,03,14,09,26.90
2017,09,03,14,10,26.90
2017,09,03,14,11,26.90
2017,09,03,14,12,26.90
2017,09,03,14,13,27.00
2017,09,03,14,14,27.00
2017,09,03,14,15,27.10
2017,09,03,14,16,27.20
2017,09,03,14,17,27.30
2017,09,03,14,18,27.40
2017,09,03,14,19,27.50
2017,09,03,14,20,27.60
2017,09,03,14,21,27.60
2017,09,03,14,22,27.70
2017,09,03,14,23,27.70
2017,09,03,14,24,27.70
2017,09,03,14,25,27.70
2017,09,03,14,26,27.70
2017,09,03,14,27,27.70
2017,09,03,14,28,27.70
2017,09,03,14,29,27.70
2017,09,03,14,30,27.70
2017,09,03,14,31,27.70
2017,09,03,14,32,27.80
2017,09,03,14,33,27.80
2017,09,03,14,34,27.90
2017,09,03,14,35,27.90
2017,09,03,14,36,27.80
2017,09,03,14,37,27.80
2017,09,03,14,38,27.70
2017,09,03,14,39,27.50
2017,09,03,14,40,27.40
2017,09,03,14,41,27.30
2017,09,03,14,42,27.20
2017,09,03,14,43,27.10
2017,09,03,14,44,27.00
2017,09,03,14,45,26.90
2017,09,03,14,46,26.90
2017,09,03,14,47,26.80
2017,09,03,14,48,26.90
2017,09,03,14,49,26.90
2017,09,03,14,50,27.00
2017,09,03,14,51,27.00
2017,09,03,14,52,27.10
2017,09,03,14,53,27.10
2017,09,03,14,54,27.20
2017,09,03,14,55,27.30
2017,09,03,14,56,27.30
2017,09,03,14,57,27.30
2017,09,03,14,58,27.40
2017,09,03,14,59,27.40
2017,09,03,15,00,27.40
2017,09,03,15,01,27.50
2017,09,03,15,02,27.50
2017,09,03,15,03,27.60
2017,09,03,15,04,27.60
2017,09,03,15,05,27.70
2017,09,03,15,06,27.70
2017,09,03,15,07,27.70
2017,09,03,15,08,27.70
2017,09,03,15,09,27.80
2017,09,03,15,10,27.80
2017,09,03,15,11,27.80
2017,09,03,15,12,27.90
2017,09,03,15,13,28.00
2017,09,03,15,14,28.10
2017,09,03,15,15,28.20
2017,09,03,15,16,28.30
2017,09,03,15,17,28.40
2017,09,03,15,18,28.40
2017,09,03,15,19,28.40
2017,09,03,15,20,28.50
2017,09,03,15,21,28.50
2017,09,03,15,22,28.60
2017,09,03,15,23,28.60
2017,09,03,15,24,28.70
2017,09,03,15,25,28.70
2017,09,03,15,26,28.80
2017,09,03,15,27,28.80
2017,09,03,15,28,28.80
2017,09,03,15,29,28.70
2017,09,03,15,30,28.60
2017,09,03,15,31,28.60
2017,09,03,15,32,28.50
2017,09,03,15,33,28.40
2017,09,03,15,34,28.40
2017,09,03,15,35,28.40
2017,09,03,15,36,28.30
2017,09,03,15,37,28.30
2017,09,03,15,38,28.30
2017,09,03,15,39,28.30
2017,09,03,15,40,28.30
2017,09,03,15,41,28.40
2017,09,03,15,42,28.40
2017,09,03,15,43,28.40
2017,09,03,15,44,28.50
2017,09,03,15,45,28.50
2017,09,03,15,46,28.60
2017,09,03,15,47,28.70
2017,09,03,15,48,28.80
2017,09,03,15,49,28.80
2017,09,03,15,50,28.90
2017,09,03,15,51,29.00
2017,09,03,15,52,29.00
2017,09,03,15,53,29.10
2017,09,03,15,54,29.20
2017,09,03,15,55,29.30
2017,09,03,15,56,29.40
2017,09,03,15,57,29.50
2017,09,03,15,58,29.60
2017,09,03,15,59,29.60
2017,09,03,16,00,29.70
2017,09,03,16,01,29.80
2017,09,03,16,02,29.80
2017,09,03,16,03,29.80
2017,09,03,16,04,29.80
2017,09,03,16,05,29.80
2017,09,03,16,06,29.80
2017,09,03,16,07,29.80
2017,09,03,16,08,29.80
2017,09,03,16,09,29.80
2017,09,03,16,10,29.80
2017,09,03,16,11,29.90
2017,09,03,16,12,29.90
2017,09,03,16,13,30.00
2017,09,03,16,14,30.00
2017,09,03,16,15,30.00
2017,09,03,16,16,30.00
2017,09,03,16,17,30.00
2017,09,03,16,18,30.00
2017,09,03,16,19,30.00
2017,09,03,16,20,30.00
2017,09,03,16,21,29.90
2017,09,03,16,22,29.90
2017,09,03,16,23,30.00
2017,09,03,16,24,30.00
2017,09,03,16,25,30.00
2017,09,03,16,26,30.00
2017,09,03,16,27,29.90
2017,09,03,16,28,29.90
2017,09,03,16,29,29.90
2017,09,03,16,30,29.90
2017,09,03,16,31,29.90
2017,09,03,16,32,30.00
2017,09,03,16,33,30.00
2017,09,03,16,34,30.10
2017,09,03,16,35,30.10
2017,09,03,16,36,30.10
2017,09,03,16,37,30.10
2017,09,03,16,38,30.20
2017,09,03,16,39,30.20
2017,09,03,16,40,30.30
2017,09,03,16,41,30.30
2017,09,03,16,42,30.30
2017,09,03,16,43,30.30
2017,09,03,16,44,30.30
2017,09,03,16,45,30.30
2017,09,03,16,46,30.20
2017,09,03,16,47,30.20
2017,09,03,16,48,30.20
2017,09,03,16,49,30.20
2017,09,03,16,50,30.20
2017,09,03,16,51,30.20
2017,09,03,16,52,30.20
2017,09,03,16,53,30.20
2017,09,03,16,54,30.20
2017,09,03,16,55,30.20
2017,09,03,16,56,30.20
2017,09,03,16,57,30.20
2017,09,03,16,58,30.20
2017,09,03,16,59,30.20
2017,09,03,17,00,30.20
2017,09,03,17,01,30.20
2017,09,03,17,02,30.20
2017,09,03,17,03,30.20
2017,09,03,17,04,30.20
2017,09,03,17,05,30.20
2017,09,03,17,06,30.20
2017,09,03,17,07,30.20
2017,09,03,17,08,30.20
2017,09,03,17,09,30.20
2017,09,03,17,10,30.20
2017,09,03,17,11,30.20
2017,09,03,17,12,30.20
2017,09,03,17,13,30.20
2017,09,03,17,14,30.20
2017,09,03,17,15,30.30
2017,09,03,17,16,30.30
2017,09,03,17,17,30.30
2017,09,03,17,18,30.30
2017,09,03,17,19,30.30